Regional Weather Roundup
Issued by NWS Cleveland, OH

Home | Current Version | Previous Version | Graphics & Text | Print | Product List | Glossary On
Versions: 1 2 3 4 5 6 7 8 9 10 11 12 13 14 15 16 17 18 19 20 21 22 23 24 25 26 27 28 29 30 31 32 33 34 35 36 37 38 39 40 41 42 43 44 45 46 47 48 49 50
000
ASUS41 KCLE 220412
RWRCLE
OHIO REGIONAL WEATHER ROUNDUP
NATIONAL WEATHER SERVICE WILMINGTON, OH
1200 AM EDT SUN APR 22 2018

NOTE: "FAIR" INDICATES FEW OR NO CLOUDS BELOW 12,000 FEET WITH NO
SIGNIFICANT WEATHER AND/OR OBSTRUCTIONS TO VISIBILITY.

OHZ001>008-015>018-024>027-034-035-043-044-220500-
   NORTHWEST OHIO

CITY           SKY/WX    TMP DP  RH WIND       PRES   REMARKS
DEFIANCE       FAIR      46  24  42 E7        30.39F
FINDLAY        FAIR      46  19  34 NE9       30.37F
TOLEDO EXPRESS FAIR      46  17  31 CALM      30.40S
TOLEDO EXEC    FAIR      42  27  55 E3        30.41S
LIMA           FAIR      44  24  45 NE6       30.36F
$$

OHZ009>014-019>023-028>033-038-089-220500-
   NORTHEAST OHIO

CITY           SKY/WX    TMP DP  RH WIND       PRES   REMARKS
CLE-HOPKINS    MOCLDY    40  33  76 CALM      30.42F
CLE-LAKEFRONT  FAIR      40  36  86 N3        30.40S
CUY CO. ARPT   NOT AVBL
LORAIN-ELYRIA  FAIR      36  24  62 MISG      30.40S
ASHTABULA      FAIR      35  29  78 CALM      30.40F
AKRON-CANTON   CLOUDY    46  26  45 NE8       30.38S
WOOSTER        CLOUDY    43  28  55 N5        30.39S
MANSFIELD      CLOUDY    43  26  51 CALM      30.38S
YOUNGSTOWN     CLOUDY    43  26  51 NE6       30.37F
$$

OHZ042-051>053-060>062-070>072-077>081-220500-
  SOUTHWEST OHIO

CITY           SKY/WX    TMP DP  RH WIND       PRES   REMARKS
CINC-COVINGTON CLOUDY    53  23  31 NE9       30.30F
CINC-LUNKEN    FAIR      50  32  50 NE5       30.32F
HAMILTON       FAIR      50  26  39 E6        30.33F
DAYTON         MOCLDY    45  26  47 NE8       30.35F
WRIGHT-PAT AFB CLOUDY    47  24  39 NE7       30.34F
DAYTON GENERAL FAIR      49  24  37 NE9       30.32F
WILMINGTON     FAIR      46  31  55 NE8       30.33F
$$

OHZ036-037-039>041-045>050-054>059-063>069-073>076-082>088-220500-
  CENTRAL AND SOUTHEAST OHIO

CITY           SKY/WX    TMP DP  RH WIND       PRES   REMARKS
COLUMBUS       CLOUDY    51  21  30 N5        30.34F
OSU AIRPORT    FAIR      47  26  44 N7        30.35F
BOLTON FIELD   FAIR      46  30  53 N6        30.36S
RICKENBACK AFB FAIR      47  27  46 NE7       30.33F
NEWARK         FAIR      50  24  36 VRB3      30.35S
MARION         FAIR      41  26  55 NE6       30.37F
LANCASTER      FAIR      48  31  51 CALM      30.35F
ZANESVILLE     NOT AVBL
NEW PHILLY     FAIR      49  30  48 NE7       30.37F
$$



USA.gov is the U.S. government's official web portal to all federal, state and local government web resources and services.